UZB756 UBBB-UZTT

Flight info

Callsign UZB756
Flight time N/A
Altitude 39000
Route NAMAS N35 RODAR A909 TUNEK B143 KRS B738 NEBIT B476 DARVA/K0828F390 T898 OGOLI N193 DIBAD DIBAD2T
Aircraft A20N/M-SDE2E3FGHIJ1RWXY/LB1

Departure

Time N/A
Airport Heydar Aliyev International Airport (UBBB)

Arrival

Time 2026-04-12 10:45
Airport Tashkent International Airport (UZTT)
Time Latitude Longitude Altitude Speed Heading
2026-04-12 09:19 40.83356 55.84521 38947 ft 493 kts 72°
2026-04-12 09:19 40.85444 55.92413 38941 ft 491 kts 72°
2026-04-12 09:20 40.88854 56.05371 38934 ft 494 kts 72°
2026-04-12 09:21 40.92135 56.17905 38939 ft 494 kts 72°
2026-04-12 09:21 40.94349 56.26385 38945 ft 494 kts 72°
2026-04-12 09:22 40.96656 56.35265 38956 ft 494 kts 72°
2026-04-12 09:22 40.98943 56.44109 38956 ft 494 kts 72°
2026-04-12 09:23 41.00882 56.53133 38953 ft 493 kts 79°
2026-04-12 09:23 41.02067 56.62214 38971 ft 491 kts 82°
2026-04-12 09:24 41.03121 56.71295 38980 ft 492 kts 83°
2026-04-12 09:24 41.04193 56.80472 38994 ft 491 kts 83°
2026-04-12 09:25 41.05266 56.89628 38998 ft 492 kts 83°
2026-04-12 09:25 41.06348 56.98888 38985 ft 492 kts 83°
2026-04-12 09:26 41.07417 57.08117 38987 ft 492 kts 83°
2026-04-12 09:26 41.08478 57.17329 38985 ft 492 kts 83°
2026-04-12 09:27 41.09542 57.26621 38982 ft 492 kts 82°
2026-04-12 09:27 41.10588 57.35832 38987 ft 493 kts 82°
2026-04-12 09:28 41.11631 57.45092 38991 ft 492 kts 82°
2026-04-12 09:28 41.12589 57.53667 38981 ft 492 kts 82°
2026-04-12 09:29 41.13617 57.62926 38990 ft 493 kts 82°
2026-04-12 09:29 41.14633 57.72139 38990 ft 492 kts 83°
2026-04-12 09:30 41.15651 57.81432 38993 ft 493 kts 83°
2026-04-12 09:30 41.16654 57.90663 38993 ft 493 kts 83°
2026-04-12 09:31 41.17659 57.99988 38998 ft 493 kts 83°
2026-04-12 09:31 41.18648 58.09233 39003 ft 493 kts 83°
2026-04-12 09:32 41.19613 58.18380 39005 ft 492 kts 83°
2026-04-12 09:32 41.20581 58.27620 39007 ft 492 kts 82°
2026-04-12 09:33 41.21550 58.36901 39010 ft 492 kts 82°
2026-04-12 09:33 41.22506 58.46127 39013 ft 491 kts 82°
2026-04-12 09:34 41.23447 58.55273 39017 ft 491 kts 82°
2026-04-12 09:34 41.24390 58.64535 39022 ft 492 kts 82°
2026-04-12 09:35 41.25319 58.73709 39024 ft 491 kts 83°
2026-04-12 09:35 41.26246 58.82959 39028 ft 490 kts 83°
2026-04-12 09:36 41.27161 58.92147 39028 ft 491 kts 83°
2026-04-12 09:36 41.28059 59.01245 39030 ft 490 kts 83°
2026-04-12 09:37 41.28943 59.10259 39028 ft 490 kts 83°
2026-04-12 09:37 41.29819 59.19288 39024 ft 490 kts 83°
2026-04-12 09:38 41.30716 59.28612 39035 ft 490 kts 82°
2026-04-12 09:38 41.31603 59.37891 39032 ft 489 kts 82°
2026-04-12 09:39 41.32482 59.47158 39036 ft 489 kts 82°
2026-04-12 09:39 41.33347 59.56373 39034 ft 490 kts 82°
2026-04-12 09:40 41.34044 59.65499 39048 ft 489 kts 88°
2026-04-12 09:40 41.33967 59.74809 39045 ft 489 kts 94°
2026-04-12 09:41 41.33516 59.83987 39045 ft 489 kts 94°
2026-04-12 09:41 41.33059 59.93261 39051 ft 489 kts 94°
2026-04-12 09:42 41.32610 60.02611 39051 ft 488 kts 94°
2026-04-12 09:42 41.32157 60.11969 39056 ft 489 kts 94°
2026-04-12 09:43 41.31251 60.30678 39060 ft 489 kts 94°
2026-04-12 09:44 41.30814 60.39942 39060 ft 488 kts 91°
2026-04-12 09:44 41.30949 60.49206 39061 ft 488 kts 85°
2026-04-12 09:45 41.31454 60.58434 39064 ft 488 kts 84°
2026-04-12 09:45 41.31957 60.67597 39066 ft 489 kts 85°
2026-04-12 09:46 41.32447 60.76911 39070 ft 488 kts 85°
2026-04-12 09:46 41.32923 60.86202 39066 ft 488 kts 85°
2026-04-12 09:47 41.33394 60.95594 39075 ft 488 kts 85°
2026-04-12 09:47 41.33854 61.04899 39068 ft 488 kts 85°
2026-04-12 09:48 41.34304 61.14152 39072 ft 486 kts 85°
2026-04-12 09:48 41.34746 61.23342 39075 ft 486 kts 85°
2026-04-12 09:49 41.35180 61.32485 39078 ft 486 kts 85°
2026-04-12 09:49 41.35607 61.41763 39078 ft 486 kts 85°
2026-04-12 09:50 41.36028 61.51083 39079 ft 486 kts 85°
2026-04-12 09:50 41.36435 61.60218 39080 ft 486 kts 85°
2026-04-12 09:51 41.36838 61.69343 39080 ft 486 kts 86°
2026-04-12 09:51 41.37236 61.78544 39084 ft 485 kts 85°
2026-04-12 09:52 41.37629 61.87764 39086 ft 485 kts 86°
2026-04-12 09:52 41.38009 61.96847 39081 ft 484 kts 86°
2026-04-12 09:53 41.38386 62.06058 39075 ft 484 kts 86°
2026-04-12 09:53 41.38750 62.15144 39076 ft 484 kts 86°
2026-04-12 09:54 41.39099 62.23969 39078 ft 484 kts 86°
2026-04-12 09:54 41.39433 62.32611 39080 ft 485 kts 86°
2026-04-12 09:55 41.39774 62.41562 39079 ft 484 kts 86°
2026-04-12 09:55 41.40109 62.50611 39085 ft 485 kts 86°
2026-04-12 09:56 41.40455 62.59606 39087 ft 485 kts 85°
2026-04-12 09:56 41.40807 62.68639 39085 ft 485 kts 86°
2026-04-12 09:57 41.41151 62.77648 39089 ft 485 kts 86°
2026-04-12 09:57 41.41489 62.86727 39090 ft 485 kts 86°
2026-04-12 09:58 41.41819 62.95776 39094 ft 485 kts 86°
2026-04-12 09:58 41.42141 63.04790 39097 ft 484 kts 86°
2026-04-12 09:59 41.42459 63.13881 39099 ft 484 kts 86°
2026-04-12 09:59 41.42767 63.22893 39097 ft 485 kts 86°
2026-04-12 10:00 41.43068 63.31927 39101 ft 485 kts 86°
2026-04-12 10:00 41.43363 63.40945 39096 ft 485 kts 86°
2026-04-12 10:01 41.43652 63.49983 39096 ft 486 kts 86°
2026-04-12 10:01 41.43946 63.59405 39102 ft 486 kts 86°
2026-04-12 10:02 41.44223 63.68626 39103 ft 486 kts 87°
2026-04-12 10:02 41.44471 63.77682 39107 ft 486 kts 88°
2026-04-12 10:03 41.44714 63.86807 39085 ft 486 kts 88°
2026-04-12 10:03 41.44950 63.95869 39106 ft 486 kts 88°
2026-04-12 10:04 41.45180 64.04936 39119 ft 486 kts 88°
2026-04-12 10:04 41.45395 64.13654 39120 ft 487 kts 87°
2026-04-12 10:05 41.45610 64.22673 39127 ft 487 kts 87°
2026-04-12 10:05 41.45819 64.31728 39124 ft 486 kts 87°
2026-04-12 10:06 41.46015 64.40404 39131 ft 486 kts 88°
2026-04-12 10:06 41.46209 64.49393 39130 ft 486 kts 88°
2026-04-12 10:07 41.46391 64.58110 39124 ft 486 kts 88°
2026-04-12 10:07 41.46574 64.67246 39120 ft 485 kts 88°
2026-04-12 10:08 41.46748 64.76272 39117 ft 485 kts 88°
2026-04-12 10:08 41.46916 64.85313 39117 ft 485 kts 88°
2026-04-12 10:09 41.47055 64.93089 39112 ft 484 kts 88°
2026-04-12 10:09 41.47207 65.01967 39106 ft 483 kts 88°
2026-04-12 10:10 41.47352 65.10945 39111 ft 483 kts 88°
2026-04-12 10:10 41.47490 65.19953 39110 ft 483 kts 88°
2026-04-12 10:11 41.47625 65.29037 39113 ft 482 kts 88°
2026-04-12 10:11 41.47751 65.37955 39111 ft 482 kts 88°
2026-04-12 10:12 41.47871 65.46982 39114 ft 482 kts 88°
2026-04-12 10:12 41.47982 65.55950 39112 ft 482 kts 88°
2026-04-12 10:13 41.48089 65.64958 39111 ft 482 kts 88°
2026-04-12 10:13 41.48189 65.73981 39108 ft 482 kts 89°
2026-04-12 10:14 41.48264 65.82942 39109 ft 481 kts 89°
2026-04-12 10:14 41.48283 65.92025 39105 ft 481 kts 89°
2026-04-12 10:15 41.48296 66.01003 39111 ft 481 kts 89°
2026-04-12 10:15 41.48308 66.09972 39105 ft 480 kts 89°
2026-04-12 10:16 41.48313 66.18949 39104 ft 480 kts 89°
2026-04-12 10:16 41.48312 66.27937 39106 ft 480 kts 89°
2026-04-12 10:17 41.48305 66.36864 39105 ft 480 kts 89°
2026-04-12 10:17 41.48293 66.45989 39108 ft 480 kts 89°
2026-04-12 10:18 41.48263 66.55028 39104 ft 479 kts 91°
2026-04-12 10:18 41.47725 66.64128 39104 ft 479 kts 98°
2026-04-12 10:19 41.46522 66.72912 39106 ft 479 kts 102°
2026-04-12 10:19 41.45228 66.81634 39087 ft 478 kts 102°
2026-04-12 10:20 41.43933 66.90394 39095 ft 478 kts 102°
2026-04-12 10:20 41.42637 66.99146 39077 ft 478 kts 101°
2026-04-12 10:21 41.41342 67.07879 39102 ft 478 kts 101°
2026-04-12 10:21 41.40044 67.16595 39045 ft 478 kts 101°
2026-04-12 10:21 41.39383 67.21011 38731 ft 477 kts 101°
2026-04-12 10:22 41.38732 67.25350 38374 ft 474 kts 101°
2026-04-12 10:22 41.38121 67.29408 37911 ft 471 kts 101°
2026-04-12 10:22 41.37442 67.33912 37270 ft 468 kts 101°
2026-04-12 10:22 41.36791 67.38214 36574 ft 467 kts 101°
2026-04-12 10:23 41.36130 67.42568 35918 ft 468 kts 101°
2026-04-12 10:23 41.35517 67.46600 35300 ft 470 kts 101°
2026-04-12 10:23 41.34843 67.51015 34555 ft 473 kts 101°
2026-04-12 10:23 41.34174 67.55395 33727 ft 475 kts 101°
2026-04-12 10:24 41.33487 67.59874 32875 ft 477 kts 101°
2026-04-12 10:24 41.32787 67.64442 32007 ft 479 kts 101°
2026-04-12 10:24 41.32111 67.68833 31169 ft 479 kts 101°
2026-04-12 10:24 41.31434 67.73225 30312 ft 479 kts 101°
2026-04-12 10:25 41.30761 67.77580 29418 ft 479 kts 101°
2026-04-12 10:25 41.30092 67.81897 28539 ft 478 kts 101°
2026-04-12 10:25 41.29407 67.86287 27638 ft 477 kts 101°
2026-04-12 10:25 41.28876 67.90599 26739 ft 476 kts 95°
2026-04-12 10:26 41.28709 67.94981 26083 ft 468 kts 89°
2026-04-12 10:26 41.28902 67.99282 25519 ft 460 kts 83°
2026-04-12 10:26 41.29319 68.03535 24951 ft 456 kts 81°
2026-04-12 10:26 41.29770 68.07690 24377 ft 452 kts 81°
2026-04-12 10:27 41.30233 68.11903 23797 ft 448 kts 81°
2026-04-12 10:27 41.30675 68.15979 23235 ft 445 kts 81°
2026-04-12 10:27 41.31112 68.20068 22672 ft 440 kts 81°
2026-04-12 10:27 41.31542 68.24144 22102 ft 436 kts 81°
2026-04-12 10:28 41.31962 68.28162 21541 ft 432 kts 81°
2026-04-12 10:28 41.32377 68.32153 20973 ft 428 kts 81°
2026-04-12 10:28 41.32785 68.36100 20408 ft 424 kts 81°
2026-04-12 10:28 41.33190 68.40013 19852 ft 420 kts 81°
2026-04-12 10:29 41.33583 68.43844 19295 ft 416 kts 82°
2026-04-12 10:29 41.33976 68.47687 18730 ft 412 kts 82°
2026-04-12 10:29 41.34360 68.51457 18168 ft 408 kts 81°
2026-04-12 10:29 41.34738 68.55170 17610 ft 405 kts 82°
2026-04-12 10:30 41.35125 68.58978 17036 ft 401 kts 82°
2026-04-12 10:30 41.35511 68.62786 16457 ft 398 kts 82°
2026-04-12 10:30 41.35882 68.66477 15894 ft 394 kts 82°
2026-04-12 10:30 41.36246 68.70108 15340 ft 391 kts 82°
2026-04-12 10:31 41.36573 68.73698 14783 ft 388 kts 87°
2026-04-12 10:31 41.36235 68.77234 14214 ft 384 kts 109°
2026-04-12 10:31 41.34962 68.80347 13658 ft 381 kts 129°
2026-04-12 10:31 41.32972 68.82696 13110 ft 378 kts 146°
2026-04-12 10:32 41.30736 68.84650 12555 ft 375 kts 144°
2026-04-12 10:32 41.28706 68.86800 12005 ft 372 kts 137°
2026-04-12 10:32 41.26876 68.89250 11466 ft 368 kts 131°
2026-04-12 10:32 41.25214 68.91815 11153 ft 357 kts 130°
2026-04-12 10:33 41.23627 68.94323 10944 ft 344 kts 129°
2026-04-12 10:33 41.22097 68.96747 10742 ft 331 kts 129°
2026-04-12 10:33 41.20633 68.99062 10549 ft 319 kts 129°
2026-04-12 10:33 41.19232 69.01269 10379 ft 307 kts 129°
2026-04-12 10:34 41.17862 69.03423 10238 ft 295 kts 129°
2026-04-12 10:34 41.16568 69.05454 10103 ft 284 kts 129°
2026-04-12 10:34 41.15308 69.07429 9902 ft 277 kts 129°
2026-04-12 10:34 41.14135 69.09465 9523 ft 276 kts 116°
2026-04-12 10:35 41.13664 69.11768 9170 ft 275 kts 91°
2026-04-12 10:35 41.13873 69.14324 8837 ft 273 kts 81°
2026-04-12 10:35 41.14193 69.16839 8499 ft 271 kts 81°
2026-04-12 10:35 41.14504 69.19355 8162 ft 270 kts 81°
2026-04-12 10:36 41.14803 69.21877 7826 ft 269 kts 81°
2026-04-12 10:36 41.15091 69.24378 7494 ft 268 kts 81°
2026-04-12 10:36 41.15367 69.26807 7171 ft 267 kts 81°
2026-04-12 10:36 41.15652 69.29330 6836 ft 266 kts 81°
2026-04-12 10:37 41.15924 69.31757 6514 ft 265 kts 81°
2026-04-12 10:37 41.16197 69.34182 6194 ft 264 kts 81°
2026-04-12 10:37 41.16470 69.36616 5871 ft 263 kts 80°
2026-04-12 10:37 41.16741 69.39038 5549 ft 262 kts 80°
2026-04-12 10:38 41.17024 69.41560 5209 ft 261 kts 80°
2026-04-12 10:38 41.17301 69.44049 4879 ft 260 kts 80°
2026-04-12 10:38 41.17564 69.46413 4803 ft 247 kts 80°
2026-04-12 10:38 41.17812 69.48650 4777 ft 233 kts 80°
2026-04-12 10:39 41.18083 69.50935 4733 ft 227 kts 75°
2026-04-12 10:39 41.18907 69.52758 4612 ft 214 kts 32°
2026-04-12 10:39 41.20316 69.53246 4541 ft 211 kts 353°
2026-04-12 10:39 41.21787 69.52883 4446 ft 212 kts 349°
2026-04-12 10:40 41.23254 69.52546 4306 ft 211 kts 351°
2026-04-12 10:40 41.24719 69.52261 4092 ft 213 kts 351°
2026-04-12 10:40 41.26209 69.51994 3839 ft 210 kts 352°
2026-04-12 10:40 41.27673 69.51687 3562 ft 210 kts 340°
2026-04-12 10:41 41.28827 69.50587 3369 ft 203 kts 302°
2026-04-12 10:41 41.29189 69.48890 3408 ft 193 kts 267°
2026-04-12 10:41 41.28789 69.47173 3388 ft 193 kts 246°
2026-04-12 10:41 41.28191 69.45545 3404 ft 187 kts 246°
2026-04-12 10:42 41.27756 69.44048 3382 ft 160 kts 254°
2026-04-12 10:42 41.27497 69.42698 3233 ft 144 kts 260°
2026-04-12 10:42 41.27316 69.41379 3043 ft 142 kts 262°
2026-04-12 10:42 41.27167 69.40092 2866 ft 141 kts 262°
2026-04-12 10:43 41.26883 69.37504 2510 ft 139 kts 262°
2026-04-12 10:43 41.26740 69.36236 2335 ft 138 kts 261°
2026-04-12 10:43 41.26598 69.34974 2162 ft 137 kts 262°
2026-04-12 10:44 41.26466 69.33720 1982 ft 136 kts 262°
2026-04-12 10:44 41.26328 69.32476 1786 ft 135 kts 261°
2026-04-12 10:44 41.26183 69.31244 1635 ft 135 kts 263°
2026-04-12 10:44 41.26054 69.30000 1451 ft 133 kts 263°
2026-04-12 10:45 41.25928 69.28854 1423 ft 107 kts 261°
2026-04-12 10:45 41.25841 69.28097 1423 ft 58 kts 261°
2026-04-12 10:45 41.25799 69.27720 1423 ft 35 kts 262°
2026-04-12 10:45 41.25841 69.27498 1423 ft 21 kts 316°
2026-04-12 10:46 41.25936 69.27387 1422 ft 17 kts 319°
2026-04-12 10:46 41.26022 69.27290 1422 ft 12 kts 319°
2026-04-12 10:46 41.26088 69.27213 1422 ft 13 kts 318°
2026-04-12 10:46 41.26120 69.27113 1422 ft 12 kts 253°
2026-04-12 10:47 41.26088 69.27002 1422 ft 12 kts 266°
2026-04-12 10:47 41.26129 69.26908 1422 ft 10 kts 318°
2026-04-12 10:47 41.26177 69.26889 1422 ft 5 kts 354°
2026-04-12 10:47 41.26186 69.26888 1422 ft 1 kts 356°
2026-04-12 10:48 41.26188 69.26888 1422 ft 0 kts 356°